Home > Weather > Bakersfield > Past weeks

Flag for USA Past Weather in Bakersfield, California, USA — Yesterday and Last 2 Weeks

Now
108 °F

Sunny.


Feels Like: 102 °F
Forecast: 81 / 110 °F
Wind: 12 mph from North

Location: Meadows Field

Current Time: Jul 28, 2016 at 7:10:50 PM

Latest Report: Jul 28, 2016 at 5:54 PM


Visibility: 10 mi

Pressure: 29.73 "Hg

Humidity: 9%

Dew Point: 39 °F

Location of BakersfieldLocation

Past Weather in Bakersfield — Graph

°F

Bakersfield Temperature Yesterday

Maximum temperature yesterday: 107 °F (at 3:54 PM)
Minimum temperature yesterday: 79 °F (at 5:54 AM)
Average temperature yesterday: 94 °F

High & Low Weather Summary for the Past Weeks

 TemperatureHumidityPressure
High108 °F (Jul 28, 4:54 PM)59% (Jul 20, 3:54 AM)30.07 "Hg (Jul 20, 3:54 AM)
Low67 °F (Jul 19, 5:54 AM)7% (Jul 24, 4:54 PM)29.71 "Hg (Jul 16, 5:54 PM)
Average87 °F23%29.87 "Hg
* Reported Jul 13 5:54 PM — Jul 28 5:54 PM, Bakersfield, Weather by CustomWeather, © 2016

Note: Actual official high and low records may vary slightly from our data, if they occured in-between our weather recording intervals... More about our weather records

Advertising

Bakersfield Weather History for the Previous 24 Hours

Scroll right to see more
 ConditionsComfort  
Time TempWeatherWind HumidityBarometerVisibility
5:54 PM
Thu, Jul 28
108 °FSunny.12 mph9%29.73 "Hg10 mi
4:54 PM108 °FSunny.9 mph10%29.74 "Hg10 mi
3:54 PM107 °FSunny.12 mph11%29.75 "Hg8 mi
2:54 PM106 °FSunny.10 mph9%29.78 "Hg9 mi
1:54 PM104 °FSunny.7 mph10%29.80 "Hg10 mi
12:54 PM101 °FSunny.6 mph10%29.83 "Hg10 mi
11:54 AM99 °FSunny.8 mph15%29.84 "Hg10 mi
10:54 AM97 °FSunny.6 mph17%29.85 "Hg10 mi
9:54 AM94 °FSunny.5 mph19%29.85 "Hg9 mi
8:54 AM90 °FSunny.No wind24%29.86 "Hg7 mi
7:54 AM86 °FSunny.5 mph26%29.86 "Hg7 mi
6:54 AM84 °FClear.3 mph29%29.84 "Hg8 mi
5:54 AM83 °FClear.3 mph31%29.83 "Hg9 mi
4:54 AM81 °FClear.3 mph33%29.83 "Hg9 mi
3:54 AM82 °FClear.No wind34%29.82 "Hg10 mi
2:54 AM83 °FClear.No wind31%29.82 "Hg9 mi
1:54 AM85 °FClear.No wind31%29.82 "Hg8 mi
12:54 AM86 °FClear.5 mph31%29.82 "Hg9 mi
11:54 PM
Wed, Jul 27
89 °FClear.6 mph23%29.82 "Hg10 mi
10:54 PM92 °FClear.8 mph21%29.81 "Hg10 mi
9:54 PM92 °FClear.7 mph14%29.80 "Hg7 mi
8:54 PM95 °FSunny.5 mph14%29.78 "Hg7 mi
7:54 PM103 °FSunny.5 mph9%29.76 "Hg4 mi
Weather by CustomWeather, © 2016

See weather overviewHow to use our weather pages